RH
86 87 92 94 93 95 97 74 61 79 63 56 75 60 53 61 40 42 44 39 42 43 50 52 50 49 46 51 50 41 44 54 57 37 36 39 36 41 44 53 47 66 60 41
86 89 94 93 93 90 90 68 93 84 59 68 83 58 52 49 41 45 44 49 48 53 59 59 58 58 56 49 46 50 47 56 57 44 36 35 39 46 48 54 61 60 81 38
88 93 95 94 95 89 80 85 92 81 70 65 54 57 52 50 49 48 44 50 51 58 60 63 66 60 55 54 51 74 58 53 50 46 38 42 43 52 46 46 62 52 54 38
92 94 95 97 94 91 83 79 81 79 80 69 55 50 53 49 51 47 45 48 48 56 65 64 67 59 48 48 66 62 50 53 52 54 54 46 37 43 51 43 45 52 41 44
93 95 95 96 95 92 84 80 73 69 73 72 57 70 58 49 50 49 50 51 55 54 59 52 66 57 48 40 58 61 60 63 54 59 60 58 52 44 43 50 49 46 47 46
94 95 96 96 93 81 80 94 76 62 84 80 64 69 63 52 56 64 53 51 57 59 59 59 64 61 64 54 62 69 62 68 59 59 60 52 60 50 45 45 46 43 49 37
94 97 96 96 90 82 78 89 76 76 82 80 61 63 58 56 54 58 62 56 58 62 61 57 53 59 70 66 69 61 68 64 68 73 71 60 36 45 43 45 44 42 43 45
97 95 96 96 89 89 86 95 74 76 97 70 67 70 74 73 77 77 74 75 66 61 54 72 66 74 75 74 70 63 59 70 81 78 58 42 27 36 49 56 37 43 42 49
95 95 97 96 91 91 91 96 86 75 85 75 61 74 70 76 81 79 85 72 64 61 78 77 78 73 58 55 71 71 64 66 72 78 64 61 41 33 47 43 60 43 51 64
95 95 96 95 90 91 90 97 87 78 90 82 71 73 73 73 77 84 79 71 74 63 84 89 78 64 55 56 69 92 96 95 84 82 80 59 42 41 46 54 53 55 60 62
98 98 95 92 87 90 87 97 95 77 94 90 84 74 75 76 76 83 79 75 80 86 88 91 79 90 75 67 58 80 75 91 92 89 80 70 45 49 61 56 55 55 65 66
98 99 97 90 83 88 89 93 97 88 87 88 85 81 81 80 62 79 84 69 75 75 86 90 93 99 98 82 75 71 70 67 72 63 66 51 49 57 52 56 53 53 65 63
98 99 99 89 86 88 89 96 94 84 95 85 82 84 77 75 81 72 77 84 74 72 74 88 92 91 88 94 85 76 68 61 71 67 49 54 54 50 53 52 55 55 61 61
99 99 99 96 90 92 86 90 97 80 90 100 88 77 81 76 82 77 73 78 84 84 82 97 98 96 78 88 74 79 67 67 68 71 61 58 52 58 56 56 62 63 66 70
98 94 94 93 92 90 89 97 98 94 64 97 98 82 79 81 83 79 75 74 80 88 95 100 95 90 91 96 92 87 69 65 76 73 51 53 52 48 60 67 68 69 74 75
99 99 94 89 89 89 82 73 89 94 89 92 99 89 88 86 85 88 91 88 87 84 87 99 89 86 87 100 89 66 61 62 56 56 56 56 58 60 66 71 74 76 69 58
94 92 92 94 94 91 72 67 88 94 90 95 98 98 86 91 90 95 95 94 94 88 97 99 98 96 83 99 91 82 77 74 72 67 70 72 71 77 74 58 51 55 55 65
94 93 93 92 94 94 94 97 95 95 80 88 95 98 97 89 98 99 95 99 95 97 98 98 99 97 99 99 87 82 78 80 78 83 79 82 61 49 49 55 67 83 87 89
91 91 92 90 96 99 96 94 93 91 80 95 94 90 93 90 99 99 99 96 100 97 100 100 94 100 100 89 87 91 92 95 92 70 60 69 77 79 81 81 84 94 99 99
88 88 88 99 100 91 86 85 90 95 98 98 100 94 100 90 100 100 100 100 100 99 99 96 100 100 81 86 89 93 94 90 82 84 91 96 97 96 98 99 98 96 93 89
95 99 100 98 89 88 94 98 97 96 96 99 99 98 98 96 98 100 100 100 100 96 92 99 98 98 83 90 94 86 85 87 90 92 94 96 98 98 99 98 96 93 88 81
93 96 93 90 90 95 96 100 100 99 98 100 100 100 98 100 95 98 99 100 100 94 94 100 99 95 98 97 98 97 95 94 93 94 94 92 89 86 86 82 73 72 83 93
90 90 90 92 98 98 89 100 100 100 100 100 100 100 100 99 97 100 100 100 100 98 100 98 99 99 99 99 99 97 96 93 86 79 77 74 70 70 78 86 87 90 83 78
96 96 99 96 100 100 100 99 100 100 100 100 100 100 100 100 100 100 100 100 99 99 97 96 99 100 98 92 95 92 86 88 76 69 68 74 78 79 88 92 92 94 85 85
99 94 99 98 100 99 100 100 100 100 100 100 100 100 97 100 98 97 97 97 96 92 93 95 99 98 88 95 93 92 95 95 84 74 80 90 88 84 80 85 84 84 91 91
99 99 99 99 99 100 100 100 100 99 100 100 98 98 96 98 97 96 95 93 94 94 99 99 98 99 99 99 99 97 94 83 80 78 74 79 88 91 84 85 90 94 95 96
96 99 100 100 100 100 100 100 100 99 100 100 98 96 95 95 96 96 95 94 94 98 98 98 98 98 98 98 98 91 82 75 79 80 85 87 88 93 93 95 88 86 86 94
Wind_Speed
23 21 19 19 17 14 9 4 3 1 3 5 1 5 6 3 3 2 2 5 4 5 3 3 3 5 1 1 1 4 1 5 3 1 1 1 1 3 4 3 4 2 1 6
21 21 22 20 21 22 6 5 3 1 4 5 1 2 3 2 1 1 3 3 3 3 5 4 3 3 1 1 3 5 5 1 3 3 2 2 3 3 4 5 3 5 4 4
22 22 22 22 24 21 5 4 4 3 4 0 8 5 4 2 2 1 4 5 4 4 3 4 5 3 1 1 2 6 5 3 4 7 3 2 4 4 4 4 3 5 7 5
22 23 22 21 22 22 3 1 3 3 5 2 5 4 6 5 3 2 2 4 3 5 5 2 3 2 2 3 3 3 2 4 2 1 1 1 2 4 8 8 4 7 3 9
22 22 20 17 19 19 2 5 5 3 2 6 7 2 7 7 3 2 1 7 3 2 6 6 9 7 4 4 2 2 3 3 2 3 1 3 3 5 7 7 4 11 5 15
21 20 19 19 24 12 3 2 2 5 4 3 6 6 7 8 7 2 3 6 5 4 1 3 3 6 8 5 5 3 2 5 3 4 3 3 6 10 13 6 6 9 11 9
20 19 17 20 26 10 3 3 4 5 2 3 6 8 4 7 4 8 3 4 5 1 9 8 8 12 12 12 9 3 5 4 2 2 2 2 4 2 3 12 7 14 5 4
18 16 17 21 24 13 3 3 5 5 3 3 3 6 6 6 5 5 4 3 1 8 3 5 5 5 6 5 7 7 3 5 4 3 3 6 5 4 6 7 7 13 14 6
14 15 18 19 19 12 3 1 3 5 9 6 5 6 5 6 4 3 3 4 3 5 4 4 5 4 4 1 1 3 5 6 4 3 3 5 6 2 2 3 5 2 7 7
12 14 16 19 21 14 4 2 2 5 5 1 5 5 7 5 5 5 4 5 2 2 3 3 3 3 1 3 5 3 2 3 3 2 3 8 6 2 2 2 6 1 6 7
12 13 16 20 22 14 3 2 1 4 4 1 1 2 6 4 3 6 6 5 2 3 4 3 4 3 4 2 3 5 6 6 3 3 1 7 5 3 5 5 2 2 5 8
11 12 16 19 22 15 4 4 1 2 5 3 1 4 3 1 5 8 1 3 5 5 6 1 4 3 1 2 3 1 3 5 4 9 6 3 6 5 2 2 3 2 3 4
9 12 15 19 17 11 6 4 2 3 5 3 4 3 5 7 3 1 7 2 5 3 2 5 3 4 4 4 5 2 4 4 3 1 3 8 10 7 7 5 9 5 6 6
10 13 15 16 15 9 7 5 1 2 5 7 3 3 5 8 5 3 3 8 7 7 2 4 3 4 4 3 2 3 3 6 4 5 9 5 8 8 11 9 6 7 3 3
13 16 17 17 16 16 16 4 1 1 5 6 1 2 5 9 5 11 10 9 6 3 3 3 3 3 5 1 1 4 6 6 5 6 5 3 5 4 3 3 4 4 5 5
11 12 15 15 14 9 4 3 3 6 2 7 3 3 5 6 7 12 9 4 4 3 3 2 2 1 3 4 3 4 2 4 3 5 2 4 7 7 4 5 3 3 7 10
10 12 14 12 12 6 6 4 3 6 1 6 4 3 4 4 4 4 4 5 3 3 3 3 3 2 2 3 4 8 10 10 10 5 3 4 6 5 8 10 13 17 17 16
14 15 21 23 25 16 6 4 7 5 7 5 5 2 3 6 3 3 4 2 2 5 3 2 2 2 1 2 7 12 13 14 2 11 4 3 8 11 13 13 15 17 14 13
7 4 5 5 8 4 2 10 7 4 6 5 3 5 4 3 2 1 3 2 4 2 2 2 2 1 2 4 8 10 12 7 10 8 12 14 15 14 15 17 16 16 11 8
5 6 6 4 2 7 7 7 7 8 5 5 4 1 2 2 1 2 2 2 2 2 0 0 2 3 5 5 5 5 8 10 6 3 9 11 11 13 13 13 10 8 4 2
5 4 3 2 7 3 5 5 5 3 4 3 1 1 3 3 3 2 1 2 0 3 1 2 1 3 2 4 6 7 9 12 14 16 15 13 10 9 7 5 4 4 5 2
2 5 4 3 5 5 7 2 2 4 2 1 2 1 2 1 1 4 0 3 1 3 2 2 3 2 4 5 6 7 8 11 14 13 13 10 10 7 5 2 0 0 1 1
3 6 6 5 4 7 4 5 1 2 2 1 1 2 1 1 3 3 2 3 2 2 2 2 2 3 3 5 4 6 5 7 6 6 5 4 3 3 3 3 2 1 2 3
6 4 5 3 2 3 2 2 2 1 1 2 2 3 2 1 4 1 3 1 1 3 3 3 3 4 4 4 2 6 5 3 3 4 4 4 4 4 3 3 2 2 4 3
5 4 4 4 2 3 2 1 2 2 1 1 3 3 2 2 3 2 3 2 1 2 3 3 4 7 4 5 4 4 3 2 2 2 3 4 4 4 4 5 5 6 5 6
4 5 3 1 3 2 2 2 2 1 1 0 3 3 3 2 2 2 2 4 3 3 2 4 5 6 5 4 4 3 1 2 3 4 4 4 5 5 4 4 6 6 4 6
4 3 2 2 4 3 2 1 2 2 2 2 2 3 2 2 2 2 1 3 3 5 5 4 5 6 7 4 2 1 3 4 5 5 7 7 6 4 8 11 12 12 10 7
Wind_Direction
177 172 167 176 174 150 149 143 167 236 116 82 33 159 196 195 254 163 175 112 111 143 136 120 140 177 225 162 227 149 138 123 132 183 301 303 118 139 138 128 179 72 76 274
176 172 172 166 169 162 138 155 150 30 109 134 236 256 222 181 250 225 123 105 101 68 128 110 147 158 118 167 144 161 185 63 96 12 360 348 213 146 108 105 104 188 161 258
171 172 174 170 181 182 114 126 116 360 56 77 141 147 179 170 182 96 85 119 90 104 92 25 154 132 71 92 101 69 89 113 162 188 185 149 176 177 170 138 144 169 232 269
168 180 177 180 181 186 108 83 188 169 179 218 149 136 161 152 170 83 55 67 128 153 119 88 122 134 119 47 152 64 101 149 127 111 22 254 226 181 184 204 169 191 226 220
174 182 181 174 166 146 101 140 132 36 79 131 122 157 193 152 162 122 117 120 130 136 150 177 190 145 189 186 74 84 20 160 129 186 7 11 275 241 209 228 222 253 244 267
179 183 179 161 159 158 141 198 70 106 307 111 113 193 175 184 136 52 60 143 117 105 134 90 62 78 81 109 135 124 94 137 119 244 4 1 316 222 205 194 206 209 220 241
184 185 168 165 172 178 130 181 111 96 168 134 185 170 148 154 177 138 60 70 102 171 128 114 68 59 67 64 48 62 125 98 60 152 11 263 249 182 189 223 236 215 247 185
188 178 166 173 179 181 104 157 119 122 125 171 135 144 117 96 60 76 87 14 346 145 61 73 57 356 24 27 38 28 55 122 98 148 206 304 276 186 186 183 274 212 224 194
177 172 171 173 169 170 101 99 110 106 121 237 138 134 175 138 115 65 71 35 82 66 76 80 130 189 211 213 88 55 57 59 108 136 179 232 247 301 192 163 283 236 202 154
164 168 167 165 166 170 131 115 116 95 108 304 138 161 163 129 103 100 121 157 210 36 80 89 144 205 203 184 175 193 44 17 168 142 235 284 255 272 183 118 253 195 185 168
152 162 163 162 166 168 107 94 8 110 99 30 12 128 133 113 122 137 174 85 316 49 78 128 182 161 206 151 162 180 175 155 184 107 201 275 185 108 176 226 280 250 207 191
138 145 155 157 164 170 129 100 81 87 80 128 76 81 55 328 149 128 183 145 158 167 94 139 117 139 128 112 228 337 234 197 181 196 219 239 222 238 231 181 252 261 240 267
111 123 139 150 146 147 166 106 127 69 97 38 58 12 333 30 8 226 120 291 156 124 70 141 127 134 141 160 230 187 233 172 218 107 251 237 241 265 257 241 247 234 232 247
97 118 126 133 132 144 87 71 327 86 99 108 291 332 28 329 348 56 56 123 81 97 70 105 133 138 200 186 168 189 198 144 177 262 279 268 258 230 260 271 246 252 245 241
91 98 101 110 114 116 85 90 334 48 121 142 175 317 6 355 36 74 77 97 104 112 84 95 172 116 125 61 59 258 181 186 177 231 247 215 259 304 300 272 269 266 180 121
89 89 97 110 114 100 116 66 29 19 27 101 103 290 5 349 28 54 50 45 71 78 114 132 88 39 104 129 196 295 301 313 321 293 19 241 267 288 311 305 339 78 101 108
79 81 90 104 128 86 77 141 294 344 359 87 79 8 340 340 25 43 23 27 60 71 96 70 118 96 88 125 192 351 346 334 322 318 297 305 35 359 32 80 84 84 88 92
76 87 90 92 95 112 45 1 352 345 88 66 108 291 29 358 39 58 352 43 38 29 98 85 95 72 58 208 353 335 340 330 28 14 23 45 83 76 79 88 90 75 68 69
71 95 148 66 37 53 278 325 321 41 88 109 82 131 201 357 53 47 33 26 68 297 99 85 143 115 73 347 329 347 343 326 296 44 66 75 77 78 79 80 70 79 87 92
35 44 43 39 335 316 313 3 28 20 357 37 81 190 104 19 19 42 68 1 68 167 50 354 78 79 121 13 6 356 6 14 17 107 67 66 70 73 69 72 78 89 102 67
41 46 62 243 317 53 35 54 56 332 40 22 92 121 125 349 122 126 21 133 24 167 166 160 108 98 48 17 46 48 57 68 73 82 82 79 81 88 95 95 116 169 209 253
79 117 94 42 36 50 73 36 355 46 157 356 105 76 76 84 109 103 23 110 112 175 126 128 133 124 64 73 64 64 64 84 90 99 109 121 130 134 128 116 224 26 10 333
43 47 53 48 336 60 120 172 191 145 174 186 134 72 71 64 52 79 108 141 158 105 162 140 71 108 107 103 86 87 97 97 90 91 84 80 77 57 46 77 54 324 355 349
60 49 63 60 83 68 58 92 88 98 95 94 87 73 68 359 56 48 115 82 126 172 188 162 132 136 124 129 124 126 121 58 57 47 48 54 40 44 45 46 10 9 7 348
56 25 64 57 103 56 50 52 91 35 91 39 85 65 64 36 95 36 111 91 145 209 188 136 133 141 143 136 133 105 79 55 53 23 31 20 27 33 22 19 15 18 357 344
54 46 82 49 78 58 48 41 69 19 74 11 50 80 67 59 86 83 220 140 219 153 129 119 134 157 173 181 200 208 317 7 35 45 38 50 38 27 17 21 34 2 338 335
49 39 21 56 66 68 63 60 43 344 51 75 92 91 111 78 108 152 163 186 173 140 132 149 163 165 173 183 187 301 77 65 54 64 53 49 45 41 32 18 3 352 350 339